Orbital elements:
2010 HE79
Epoch 2011 Feb. 8.0 TT = JDT 2455600.5 MPC
M 52.99932 (2000.0) P Q
n 0.00399513 Peri. 279.90466 -0.89952550 -0.37035741
a 39.3352627 Node 238.69699 +0.42341022 -0.86971891
e 0.2038806 Incl. 15.73482 -0.10759956 -0.32622754
P 247 H 5.3 G 0.15 U 4
Orbital elements: 2010 HE79 Epoch 2010 Apr. 14.0 TT = JDT 2455300.5 MPC M 359.97670 (2000.0) P Q n 0.00330044 Peri. 352.41898 -0.61612808 +0.75762413 a 44.6774663 Node 239.28348 -0.70886683 -0.65257626 e 0.2177769 Incl. 14.50928 -0.34335697 -0.01224336 P 299 H 5.1 G 0.15 From 6 observations 2010 Apr. 21-May 3.